Location: Christianberg
(48.9086°N, 14.0209°E)
Time: 21:45:21
(UTC+00:00)

Cosmos 2150 Rocket - Pass Details

Date: 20 June 2021
Orbit: 749 x 808 km, 74.0° (Epoch: 03 August)

Event Time Altitude Azimuth Distance (km) Brightness Sun altitude
Rises 00:55:56 0° 338° (NNW) 3,216 7.9 -13.6°
Reaches altitude 10° 00:58:19 10° 341° (NNW) 2,293 7.1 -13.4°
Maximum altitude 01:03:30 67° 64° (ENE) 828 4.4 -13.0°
Drops below altitude 10° 01:08:43 10° 148° (SSE) 2,310 6.2 -12.6°
Sets 01:11:07 0° 151° (SSE) 3,242 6.9 -12.4°
